GW3615 Weather Reports


time (UTC)temp
F
wind
direction
speed
knots
gust
knots
rain 1hr
in
rain 24hr
in
rain mn
in
humidity
%
barometer
mb
20260504070228 99 257 2.6 4.3 0.00 0.00 0.00 44 1006.8
20260504060227 97 196 0.9 2.6 0.00 0.00 0.00 48 1007.8
20260504050727 95 283 3.5 5.2 0.00 0.00 0.00 51 1008.1
20260504050228 94 280 2.6 5.2 0.00 0.00 0.00 52 1008.1
20260504045727 94 209 1.7 5.2 0.00 0.00 0.00 54 1008.1
20260504044752 93 212 0.9 7.0 0.00 0.00 0.00 55 1008.5
20260504044228 94 230 2.6 8.7 0.00 0.00 0.00 53 1008.5
20260504043728 94 168 2.6 6.1 0.00 0.00 0.00 52 1008.5
20260504043228 95 232 6.1 7.8 0.00 0.00 0.00 52 1008.5
20260504042730 94 234 1.7 5.2 0.00 0.00 0.00 53 1008.5
20260504042229 93 269 2.6 6.1 0.00 0.00 0.00 53 1008.1
20260504041728 93 255 0.9 6.1 0.00 0.00 0.00 56 1008.5
20260504041230 93 307 1.7 4.3 0.00 0.00 0.00 57 1008.5
20260504040727 92 289 3.5 5.2 0.00 0.00 0.00 58 1008.5
20260504040227 92 183 2.6 2.6 0.00 0.00 0.00 59 1008.5
20260504035728 91 250 2.6 4.3 0.00 0.00 0.00 59 1008.5
20260504035227 91 260 3.5 5.2 0.00 0.00 0.00 60 1008.5
20260504034727 91 267 0.9 4.3 0.00 0.00 0.00 61 1008.5
20260504034227 90 258 0.9 2.6 0.00 0.00 0.00 62 1008.5
20260504033727 90 250 1.7 5.2 0.00 0.00 0.00 64 1008.5
20260504033230 90 316 1.7 5.2 0.00 0.00 0.00 64 1008.5
20260504032728 90 327 2.6 4.3 0.00 0.00 0.00 64 1008.8
20260504032228 89 243 0.0 2.6 0.00 0.00 0.00 66 1008.5
20260504031727 88 203 1.7 5.2 0.00 0.00 0.00 67 1008.5
20260504031227 89 283 1.7 4.3 0.00 0.00 0.00 66 1008.5
20260504030727 89 263 1.7 1.7 0.00 0.00 0.00 66 1008.5
20260504030228 89 244 0.9 4.3 0.00 0.00 0.00 67 1008.5
20260504025727 89 266 0.9 4.3 0.00 0.00 0.00 68 1008.5
20260504025228 89 244 1.7 5.2 0.00 0.00 0.00 68 1008.1
20260504024727 88 247 3.5 5.2 0.00 0.00 0.00 74 1007.8
20260504024227 88 147 3.5 5.2 0.00 0.00 0.00 74 1008.1
20260504023727 88 142 3.5 7.0 0.00 0.00 0.00 74 1007.8
20260504023227 88 172 3.5 5.2 0.00 0.00 0.00 74 1007.8
20260504022728 87 212 1.7 4.3 0.00 0.00 0.00 72 1007.8
20260504022228 87 192 0.9 4.3 0.00 0.00 0.00 72 1007.5
20260504021727 86 250 0.0 0.9 0.00 0.00 0.00 72 1007.5
20260504021227 86 251 0.9 0.9 0.00 0.00 0.00 72 1007.5
20260504020727 85 262 0.0 0.9 0.00 0.00 0.00 72 1007.5
20260504020227 85 280 0.9 0.9 0.00 0.00 0.00 72 1007.5
20260504015727 85 281 1.7 1.7 0.00 0.00 0.00 72 1007.1
20260504015227 84 259 0.0 2.6 0.00 0.00 0.00 74 1007.1
20260504014727 84 262 0.0 2.6 0.00 0.00 0.00 77 1007.5
20260504014227 84 269 0.0 0.0 0.00 0.00 0.00 78 1007.1
20260504013728 84 316 0.0 1.7 0.00 0.00 0.00 78 1007.5
20260504013228 84 285 2.6 2.6 0.00 0.00 0.00 78 1007.5
20260504012727 84 294 0.9 2.6 0.00 0.00 0.00 78 1007.5
20260504012227 83 280 0.0 0.9 0.00 0.00 0.00 79 1007.5
20260504011728 83 250 0.0 0.9 0.00 0.00 0.00 80 1007.1
20260504011227 83 258 0.0 1.7 0.00 0.00 0.00 80 1007.1
20260504010727 83 244 0.0 0.9 0.00 0.00 0.00 80 1007.1
20260504010227 83 244 0.0 0.9 0.00 0.00 0.00 80 1007.1
20260504005727 83 240 0.0 0.9 0.00 0.00 0.00 80 1007.1
20260504005227 82 231 0.9 0.9 0.00 0.00 0.00 80 1006.8
20260504004727 82 230 0.9 0.9 0.00 0.00 0.00 80 1006.8
20260504004227 82 232 0.0 0.0 0.00 0.00 0.00 80 1006.8
20260504003727 82 233 0.0 0.0 0.00 0.00 0.00 80 1006.8
20260504003227 82 233 0.0 0.0 0.00 0.00 0.00 80 1006.8
20260504002727 82 254 0.0 0.9 0.00 0.00 0.00 80 1006.8
20260504002227 82 254 0.9 0.9 0.00 0.00 0.00 80 1006.8
20260504001728 82 251 0.0 0.9 0.00 0.00 0.00 80 1006.8
20260504001227 82 251 0.9 0.9 0.00 0.00 0.00 81 1006.8
20260504000728 82 238 0.0 0.9 0.00 0.00 0.00 81 1006.8
20260504000227 82 252 0.0 0.9 0.00 0.00 0.00 81 1006.8
20260503235727 82 254 0.9 1.7 0.00 0.00 0.00 82 1006.4
20260503235228 82 254 0.0 0.9 0.00 0.00 0.00 82 1006.1
20260503234727 82 200 0.0 0.0 0.00 0.00 0.00 82 1006.4
20260503234227 82 199 0.0 0.9 0.00 0.00 0.00 82 1006.4
20260503233728 82 197 0.0 0.9 0.00 0.00 0.00 82 1006.1
20260503233228 82 172 0.0 0.9 0.00 0.00 0.00 82 1006.4
20260503232726 82 172 0.9 0.9 0.00 0.00 0.00 81 1006.1
20260503232228 82 172 0.0 0.0 0.00 0.00 0.00 81 1006.1
20260503231727 82 172 0.9 0.9 0.00 0.00 0.00 80 1005.8
20260503231227 82 171 0.0 0.9 0.00 0.00 0.00 80 1005.8
20260503230728 82 171 0.0 0.0 0.00 0.00 0.00 80 1005.8
20260503230228 82 149 0.0 0.9 0.00 0.00 0.00 80 1005.8
20260503225728 82 203 0.0 0.9 0.00 0.00 0.00 79 1005.8
20260503225227 82 261 0.0 1.7 0.00 0.00 0.00 79 1005.8
20260503224727 82 238 0.9 0.9 0.00 0.00 0.00 79 1005.8
20260503224227 82 262 0.9 1.7 0.00 0.00 0.00 79 1005.8
20260503223727 82 254 0.0 1.7 0.00 0.00 0.00 79 1005.8
20260503223226 82 259 0.0 2.6 0.00 0.00 0.00 78 1005.8
20260503222727 82 236 0.0 1.7 0.00 0.00 0.00 78 1005.8
20260503222227 82 254 0.0 0.9 0.00 0.00 0.00 78 1005.4
20260503221727 82 110 0.0 0.9 0.00 0.00 0.00 78 1005.8
20260503221227 82 105 0.0 0.0 0.00 0.00 0.00 78 1005.4
20260503220729 82 105 0.0 0.0 0.00 0.00 0.00 77 1005.4
20260503220227 82 104 0.0 1.7 0.00 0.00 0.00 77 1005.4
20260503215727 82 77 0.0 1.7 0.00 0.00 0.00 77 1005.1
20260503215227 82 58 0.0 0.9 0.00 0.00 0.00 77 1005.1
20260503214727 82 58 0.9 0.9 0.00 0.00 0.00 77 1005.4
20260503214227 83 46 0.0 0.0 0.00 0.00 0.00 77 1005.1
20260503213728 83 22 0.0 0.9 0.00 0.00 0.00 76 1005.1
20260503213227 83 22 0.0 0.0 0.00 0.00 0.00 76 1005.1
20260503212727 83 21 0.0 0.9 0.00 0.00 0.00 76 1004.7
20260503212227 83 350 0.0 0.9 0.00 0.00 0.00 75 1004.7
20260503211727 83 349 0.0 0.0 0.00 0.00 0.00 75 1004.7
20260503211227 83 349 0.0 0.9 0.00 0.00 0.00 75 1004.7
20260503210727 83 350 0.0 0.9 0.00 0.00 0.00 75 1004.7
20260503210227 83 350 0.0 0.9 0.00 0.00 0.00 75 1004.7
20260503205727 83 350 0.0 0.0 0.00 0.00 0.00 75 1004.7
20260503205228 83 350 0.0 0.0 0.00 0.00 0.00 75 1004.7
20260503204728 83 349 0.0 0.9 0.00 0.00 0.00 74 1004.7
20260503204228 83 60 0.0 0.9 0.00 0.00 0.00 74 1004.7
20260503203727 83 86 0.0 0.9 0.00 0.00 0.00 75 1004.7
20260503203227 83 73 0.9 1.7 0.00 0.00 0.00 75 1004.7
20260503202730 83 45 0.0 0.9 0.00 0.00 0.00 75 1004.7
20260503202228 83 46 0.0 0.9 0.00 0.00 0.00 75 1004.7
20260503201727 83 161 0.0 0.9 0.00 0.00 0.00 75 1004.7
20260503201227 83 160 0.0 0.0 0.00 0.00 0.00 75 1005.1
20260503200727 83 193 0.0 0.9 0.00 0.00 0.00 75 1004.7
20260503200229 83 167 0.9 4.3 0.00 0.00 0.00 75 1004.4
20260503195728 83 178 0.9 1.7 0.00 0.00 0.00 75 1004.1
20260503195227 83 175 1.7 4.3 0.00 0.00 0.00 74 1004.7
20260503194727 83 179 0.9 2.6 0.00 0.00 0.00 74 1004.4
20260503194228 83 159 0.9 2.6 0.00 0.00 0.00 74 1004.7
20260503193727 83 227 2.6 5.2 0.00 0.00 0.00 74 1004.4
20260503193227 83 214 2.6 5.2 0.00 0.00 0.00 74 1004.4
20260503192728 83 139 0.9 1.7 0.00 0.00 0.00 74 1004.1
20260503192228 83 250 1.7 5.2 0.00 0.00 0.00 75 1004.4
20260503191727 83 127 3.5 4.3 0.00 0.00 0.00 76 1004.4
20260503191227 83 55 1.7 7.8 0.00 0.00 0.00 76 1004.1
20260503190727 83 56 0.9 5.2 0.00 0.00 0.00 76 1004.1
20260503190230 82 78 2.6 5.2 0.00 0.00 0.00 76 1004.4
20260503185728 82 124 2.6 5.2 0.00 0.00 0.00 76 1004.7
20260503185227 82 99 1.7 4.3 0.00 0.00 0.00 76 1005.1
20260503184727 82 98 0.9 2.6 0.00 0.00 0.00 75 1005.4
20260503184227 82 110 1.7 4.3 0.00 0.00 0.00 75 1005.8
20260503183727 82 105 1.7 2.6 0.00 0.00 0.00 75 1005.8
20260503183230 82 98 1.7 1.7 0.00 0.00 0.00 75 1006.1
20260503182727 82 104 0.0 1.7 0.00 0.00 0.00 75 1006.4
20260503182228 82 166 0.0 1.7 0.00 0.00 0.00 75 1006.8
20260503181727 82 116 0.0 0.9 0.00 0.00 0.00 75 1006.8
20260503181229 82 108 0.0 0.9 0.00 0.00 0.00 74 1007.1
20260503180727 82 112 1.7 1.7 0.00 0.00 0.00 74 1007.5
20260503180228 81 117 1.7 2.6 0.00 0.00 0.00 74 1007.5
20260503175727 81 112 0.9 1.7 0.00 0.00 0.00 73 1007.8
20260503175227 82 122 0.9 1.7 0.00 0.00 0.00 72 1007.8
20260503174730 82 121 0.9 1.7 0.00 0.00 0.00 72 1007.8
20260503174227 81 123 0.9 0.9 0.00 0.00 0.00 72 1008.5
20260503173727 81 133 0.9 0.9 0.00 0.00 0.00 72 1007.8
20260503173226 81 186 0.9 1.7 0.00 0.00 0.00 72 1008.1
20260503172727 81 187 0.0 1.7 0.00 0.00 0.00 71 1008.1
20260503172229 81 214 0.0 2.6 0.00 0.00 0.00 71 1008.5
20260503171728 81 155 2.6 4.3 0.00 0.00 0.00 70 1008.5
20260503171227 81 206 2.6 2.6 0.00 0.00 0.00 69 1008.5
20260503170727 81 158 1.7 2.6 0.00 0.00 0.00 69 1008.5
20260503170227 81 212 0.9 2.6 0.00 0.00 0.00 69 1008.8
20260503150727 86 255 0.9 0.9 0.00 0.00 0.00 56 1007.8
20260503150229 87 269 0.9 1.7 0.00 0.00 0.00 57 1007.8
20260503140227 88 324 0.9 0.9 0.00 0.00 0.00 74 1007.1
20260503131227 87 136 0.0 1.7 0.00 0.00 0.00 76 1004.7
20260503130727 87 143 0.9 2.6 0.00 0.00 0.00 75 1004.4
20260503130229 87 89 0.9 1.7 0.00 0.00 0.00 75 1004.4
20260503110727 90 98 1.7 5.2 0.00 0.00 0.00 64 1002.7
20260503110227 90 223 0.9 4.3 0.00 0.00 0.00 65 1002.7
20260503100228 89 94 4.3 7.8 0.00 0.00 0.00 67 1003.7
20260503090227 90 121 4.3 7.8 0.00 0.00 0.00 68 1004.7
20260503081228 94 94 4.3 9.6 0.00 0.00 0.00 64 1005.1
20260503080728 95 128 4.3 7.0 0.00 0.00 0.00 63 1004.7
20260503080227 96 106 3.5 9.6 0.00 0.00 0.00 62 1005.1
20260503072728 99 147 5.2 13.0 0.00 0.00 0.00 58 1004.7
20260503072227 100 139 5.2 7.8 0.00 0.00 0.00 57 1005.1
20260503071727 100 108 5.2 7.8 0.00 0.00 0.00 55 1004.7